Find Kosmos-304

NORAD ID: 4138 Int'l Des: 1969-091 Owner: OKB10 Country: SU operational
LEOCIRCULAR

リアルタイム位置

3D地球を読み込み中...

Kosmos-304について

説明を読み込み中...

次回通過

Passes for default location (London). Set your location on the main map for personalized predictions.

高度履歴

Loading altitude history...

軌道要素

1 4138U 69091A 26119.85807399 .00000049 00000-0 21075-4 0 9991
2 4138 74.0389 321.6721 0013276 333.5763 26.4717 14.46468094980741
Epoch: Apr 29, 2026 • Age: 6 hours

現在のステータス

高度 748.2 km
速度 7.48 km/s
衛星直下点 12.27°N, 115.54°W
タイプ other

Most Searched